Погода в Ариадном

Россия / Приморский край     45°08′26″N   134°23′05″E
темп.,
°C
ветер,
м/с
пор.,
м/с
влажн.,
%
обл.,
%
осадки,
мм/ч
давл.,
гПа
погр.,
м
13 июня, вс
вс1301:00+13ююв23963 0.1 100947
04:00+13ююв23965 0.5 100947
07:00+15ююв23951 0.0 100986
10:00+23з23564 0.0 1009831
13:00+27сз373724 0.0 10072771
16:00+28сз5735100 0.0 10063011
19:00+23ссз2662100 0.0 1006351
22:00+16вюв119193 0.4 100811
14 июня, пн
пн1401:00+15юв119394 0.0 100811
04:00+14вюв119578 0.0 100911
07:00+16ссв11930 0.0 100969
10:00+23с23550 0.0 1008929
13:00+27ссз22335 0.0 10072139
16:00+27ссз32280 0.0 10052100
19:00+23ссз25450 0.0 1006239
22:00+15юв23790 0.0 100842
15 июня, вт
вт1501:00+12ююв23950 0.0 100956
04:00+10юв23976 0.0 101061
07:00+13юв23810 0.0 1010172
10:00+21ююз12586 0.0 1009908
13:00+25зюз114365 0.0 10071987
16:00+22зсз136078 0.0 1007516
19:00+21св017179 0.1 1007184
22:00+16ююв229057 0.7 100931
16 июня, ср
ср1601:00+14ююв118675 0.1 101023
04:00+13ююв118615 0.1 101020
07:00+15ю128036 0.0 101192
10:00+22юз125930 0.0 1010943
13:00+26з234244 0.0 10082001
16:00+25зсз234943 0.0 10061081
19:00+21вюв216983 0.1 100733
22:00+16юв22884 0.3 100824
17 июня, чт
чт1701:00+14ююв22945 0.0 100828
04:00+13ююв229550 0.0 100837
07:00+16юв23855 0.0 1007105
10:00+24ююз244899 0.0 10061101
13:00+27ююз353486 0.0 10041948
16:00+28юз4631100 0.0 10022593
19:00+23ююз2459100 0.0 1003176
22:00+17ююв337799 0.0 100455